This demonstration page uses our WeatherBlox Daily Observations layout. Learn more.

Left ArrowRight Arrow

Hourly Observations for August 31, 2019

Temp ( °F °C ) Dew Point ( °F °C ) Humidity (%) Winds ( mph kmh ) Pressure ( in mb ) Visibility ( mi km ) Precip ( " mm )
12:53 am 00:53 Clear 76 24.4 59 15 56 56 Calm 29.91 1013 10 16 0.00 0.00
1:53 am 01:53 Clear 75 23.9 57 13.9 54 54 E 6 9 29.92 1013 10 16 0.00 0.00
2:53 am 02:53 Clear 75 23.9 57 13.9 54 54 ESE 8 13 29.92 1013 10 16 0.00 0.00
3:53 am 03:53 Clear 75 23.9 57 13.9 54 54 ESE 7 11 29.92 1013 10 16 0.00 0.00
4:53 am 04:53 Clear 73 22.8 57 13.9 57 57 E 6 9 29.92 1013 10 16 0.00 0.00
5:53 am 05:53 Clear 72 22.2 57 13.9 59 59 E 8 13 29.92 1013 10 16 0.00 0.00
6:53 am 06:53 Clear 72 22.2 58 14.4 61 61 ENE 5 7 29.93 1014 10 16 0.00 0.00
7:53 am 07:53 Sunny 71 21.7 58 14.4 63 63 ENE 8 13 29.95 1014 10 16 0.00 0.00
8:53 am 08:53 Sunny 77 25 60 15.6 56 56 ESE 9 15 29.96 1015 10 16 0.00 0.00
9:53 am 09:53 Sunny 81 27.2 61 16.1 51 51 SE 10 17 29.96 1015 10 16 0.00 0.00
10:53 am 10:53 Sunny 86 30 60 15.6 42 42 SSE 9 15 29.96 1015 10 16 0.00 0.00
11:53 am 11:53 Sunny 90 32.2 59 15 35 35 SSE 10 17 29.96 1015 10 16 0.00 0.00
12:53 pm 12:53 Sunny 93 33.9 57 13.9 30 30 S 14 22 29.95 1014 10 16 0.00 0.00
1:53 pm 13:53 Mostly Sunny 95 35 55 12.8 26 26 ESE 9 15 29.93 1013 10 16 0.00 0.00
2:53 pm 14:53 Sunny 96 35.6 54 12.2 24 24 SE 12 19 29.90 1013 10 16 0.00 0.00
3:53 pm 15:53 Mostly Sunny 96 35.6 53 11.7 23 23 SE 13 20 29.88 1012 10 16 0.00 0.00
4:53 pm 16:53 Sunny 97 36.1 48 8.9 19 19 S 13 20 29.85 1011 10 16 0.00 0.00
5:53 pm 17:53 Sunny 97 36.1 47 8.3 18 18 S 9 15 29.83 1010 10 16 0.00 0.00
6:53 pm 18:53 Sunny 96 35.6 49 9.4 20 20 SE 10 17 29.83 1010 10 16 0.00 0.00
7:53 pm 19:53 Mostly Sunny 93 33.9 52 11.1 25 25 ESE 17 28 29.86 1011 10 16 0.00 0.00
8:53 pm 20:53 Clear 87 30.6 56 13.3 35 35 ESE 14 22 29.89 1012 10 16 0.00 0.00
9:53 pm 21:53 Clear 85 29.4 56 13.3 37 37 SSE 8 13 29.89 1012 10 16 0.00 0.00
10:53 pm 22:53 Clear 82 27.8 57 13.9 42 42 SSE 8 13 29.93 1014 10 16 0.00 0.00
11:53 pm 23:53 Clear 81 27.2 57 13.9 44 44 SE 8 13 29.94 1014 10 16 0.00 0.00

Powered by AerisWeather